Weather History for Hot Springs, VA

Change the Weather History Date:

Thursday, April 17, 2014

  Actual Average Record
Temperature  
Mean Temperature 37 °F -  
Max Temperature 48 °F 55 °F 78 °F (2002)
Min Temperature 26 °F 39 °F 23 °F (2001)
Degree Days  
Heating Degree Days 28    
Moisture  
Dew Point 19 °F    
Average Humidity 50    
Maximum Humidity 64    
Minimum Humidity 37    
Precipitation  
Precipitation 0.00 in - - ()
Sea Level Pressure  
Sea Level Pressure 30.47 in    
Wind  
Wind Speed 8 mph (SE)    
Max Wind Speed 10 mph    
Max Gust Speed 16 mph    
Visibility 10 miles    
Events Snow    
Averages and records for this station are not official NWS values.
T = Trace of Precipitation, MM = Missing Value Source: NWS Daily Summary

Daily Weather History Graph

Daily Weather History Graph

Search for Another Location

Airport:

Trip Planner

Search our weather history database for the weather conditions in past years. The results will help you decide how hot, cold, wet, or windy it might be!

Date:

Astronomy

Apr. 17, 2014 Rise Set
Actual Time 6:41 AM EDT 7:57 PM EDT
Civil Twilight 6:13 AM EDT 8:24 PM EDT
Nautical Twilight 5:41 AM EDT 8:57 PM EDT
Astronomical Twilight 5:07 AM EDT 9:31 PM EDT
Moon 10:39 PM EDT (4/17) 8:13 AM EDT (4/17)
Length of Visible Light 14h 10m
Length of Day
13h 15m
Waning Gibbous, 94% of the Moon is Illuminated
Apr 17
Waning Gibbous
Apr 22
Last Quarter
Apr 29
New
May 6
First Quarter
May 14
Full

Hourly Weather History & Observations

Time (EDT) Temp. Windchill Dew Point Humidity Pressure Visibility Wind Dir Wind Speed Gust Speed Precip Events Conditions
12:15 AM 30.2 °F 21.3 °F 15.8 °F 55% 30.40 in 10.0 mi SE 10.4 mph - N/A   Clear
12:35 AM 30.2 °F 21.9 °F 15.8 °F 55% 30.40 in 10.0 mi ESE 9.2 mph - N/A   Clear
12:55 AM 30.2 °F 21.9 °F 15.8 °F 55% 30.41 in 10.0 mi ESE 9.2 mph - N/A   Clear
1:15 AM 30.2 °F 21.9 °F 15.8 °F 55% 30.41 in 10.0 mi ESE 9.2 mph - N/A   Clear
1:35 AM 28.4 °F 21.2 °F 15.8 °F 59% 30.42 in 10.0 mi ESE 6.9 mph - N/A   Clear
1:55 AM 28.4 °F 19.7 °F 15.8 °F 59% 30.42 in 10.0 mi ESE 9.2 mph - N/A   Clear
2:15 AM 28.4 °F 19.7 °F 15.8 °F 59% 30.41 in 10.0 mi ESE 9.2 mph - N/A   Clear
2:35 AM 28.4 °F 19.7 °F 15.8 °F 59% 30.41 in 10.0 mi ESE 9.2 mph - N/A   Clear
2:55 AM 28.4 °F 19.1 °F 15.8 °F 59% 30.41 in 10.0 mi SE 10.4 mph - N/A   Clear
3:15 AM 26.6 °F 18.2 °F 15.8 °F 64% 30.42 in 10.0 mi SE 8.1 mph - N/A   Clear
3:35 AM 26.6 °F 17.5 °F 15.8 °F 64% 30.42 in 10.0 mi ESE 9.2 mph - N/A   Clear
3:55 AM 26.6 °F 17.5 °F 15.8 °F 64% 30.42 in 10.0 mi ESE 9.2 mph - N/A   Clear
4:15 AM 26.6 °F 18.2 °F 14.0 °F 59% 30.43 in 10.0 mi ESE 8.1 mph - N/A   Clear
4:35 AM 26.6 °F 19.1 °F 14.0 °F 59% 30.43 in 10.0 mi ESE 6.9 mph - N/A   Clear
4:55 AM 26.6 °F 19.1 °F 14.0 °F 59% 30.43 in 10.0 mi SE 6.9 mph - N/A   Clear
5:15 AM 26.6 °F 19.1 °F 14.0 °F 59% 30.44 in 10.0 mi ESE 6.9 mph - N/A   Clear
5:35 AM 26.6 °F 19.1 °F 14.0 °F 59% 30.44 in 10.0 mi ESE 6.9 mph - N/A   Clear
5:55 AM 26.6 °F 18.2 °F 14.0 °F 59% 30.44 in 10.0 mi ESE 8.1 mph - N/A   Clear
6:15 AM 26.6 °F 20.0 °F 15.8 °F 64% 30.45 in 10.0 mi ESE 5.8 mph - N/A   Clear
6:35 AM 26.6 °F 19.1 °F 14.0 °F 59% 30.45 in 10.0 mi ESE 6.9 mph - N/A   Clear
6:55 AM 26.6 °F 20.0 °F 14.0 °F 59% 30.47 in 10.0 mi SE 5.8 mph - N/A   Clear
7:15 AM 26.6 °F 18.2 °F 15.8 °F 64% 30.47 in 10.0 mi SE 8.1 mph - N/A   Clear
7:35 AM 28.4 °F 21.2 °F 15.8 °F 59% 30.48 in 10.0 mi SE 6.9 mph - N/A   Clear
7:55 AM 28.4 °F 22.2 °F 15.8 °F 59% 30.48 in 10.0 mi SE 5.8 mph - N/A   Clear
8:15 AM 28.4 °F 19.7 °F 15.8 °F 59% 30.48 in 10.0 mi SE 9.2 mph - N/A   Clear
8:35 AM 28.4 °F 20.4 °F 15.8 °F 59% 30.49 in 10.0 mi SE 8.1 mph - N/A   Clear
8:55 AM 30.2 °F 22.6 °F 15.8 °F 55% 30.49 in 10.0 mi ESE 8.1 mph - N/A   Clear
9:15 AM 30.2 °F 22.6 °F 17.6 °F 60% 30.50 in 10.0 mi ESE 8.1 mph - N/A   Clear
9:35 AM 32.0 °F 24.8 °F 17.6 °F 55% 30.50 in 10.0 mi SE 8.1 mph - N/A   Clear
9:55 AM 33.8 °F 28.6 °F 17.6 °F 52% 30.51 in 10.0 mi East 5.8 mph - N/A   Clear
10:10 AM 33.8 °F 27.0 °F 17.6 °F 52% 30.52 in 10.0 mi SE 8.1 mph - N/A   Clear
10:35 AM 33.8 °F 27.7 °F 17.6 °F 52% 30.52 in 10.0 mi SSE 6.9 mph - N/A Snow Light Snow
10:55 AM 35.6 °F 29.9 °F 17.6 °F 48% 30.52 in 10.0 mi SSE 6.9 mph - N/A Snow Light Snow
11:15 AM 35.6 °F 31.7 °F 19.4 °F 52% 30.52 in 10.0 mi East 4.6 mph - N/A   Clear
11:35 AM 37.4 °F 30.8 °F 19.4 °F 48% 30.52 in 10.0 mi ESE 9.2 mph - N/A   Clear
11:55 AM 39.2 °F 33.6 °F 19.4 °F 45% 30.52 in 10.0 mi East 8.1 mph - N/A   Clear
12:15 PM 39.2 °F 33.6 °F 19.4 °F 45% 30.52 in 10.0 mi SE 8.1 mph 16.1 mph N/A   Clear
12:35 PM 39.2 °F 34.2 °F 19.4 °F 45% 30.51 in 10.0 mi SSE 6.9 mph - N/A   Clear
12:55 PM 42.8 °F 38.6 °F 19.4 °F 39% 30.51 in 10.0 mi ESE 6.9 mph - N/A   Clear
1:15 PM 41.0 °F 34.7 °F 19.4 °F 42% 30.51 in 10.0 mi SSE 10.4 mph - N/A   Clear
1:35 PM 42.8 °F 39.3 °F 19.4 °F 39% 30.51 in 10.0 mi SSE 5.8 mph - N/A   Clear
1:55 PM 44.6 °F 39.7 °F 21.2 °F 39% 30.50 in 10.0 mi SSE 9.2 mph - N/A   Clear
2:15 PM 44.6 °F 40.7 °F 21.2 °F 39% 30.50 in 10.0 mi East 6.9 mph - N/A   Clear
2:35 PM 44.6 °F 40.2 °F 21.2 °F 39% 30.50 in 10.0 mi SE 8.1 mph - N/A   Clear
2:55 PM 46.4 °F 41.9 °F 23.0 °F 40% 30.49 in 10.0 mi SE 9.2 mph - N/A   Clear
3:15 PM 46.4 °F 42.4 °F 23.0 °F 40% 30.49 in 10.0 mi East 8.1 mph - N/A   Clear
3:35 PM 46.4 °F 42.4 °F 23.0 °F 40% 30.48 in 10.0 mi East 8.1 mph - N/A   Clear
3:55 PM 46.4 °F 42.4 °F 23.0 °F 40% 30.48 in 10.0 mi SE 8.1 mph - N/A   Clear
4:15 PM 46.4 °F 41.5 °F 24.8 °F 43% 30.48 in 10.0 mi ESE 10.4 mph - N/A   Clear
4:35 PM 46.4 °F 42.4 °F 23.0 °F 40% 30.47 in 10.0 mi SE 8.1 mph - N/A   Clear
4:50 PM 48.2 °F - 24.8 °F 40% 30.47 in 10.0 mi ESE 9.2 mph - N/A   Clear
5:15 PM 46.4 °F 41.5 °F 23.0 °F 40% 30.47 in 10.0 mi ESE 10.4 mph - N/A   Clear
5:35 PM 46.4 °F 42.9 °F 21.2 °F 37% 30.47 in 10.0 mi SE 6.9 mph - N/A   Clear
5:55 PM 46.4 °F 42.9 °F 21.2 °F 37% 30.47 in 10.0 mi East 6.9 mph - N/A   Clear
6:15 PM 46.4 °F 42.4 °F 21.2 °F 37% 30.46 in 10.0 mi SE 8.1 mph - N/A   Clear
6:35 PM 46.4 °F 42.4 °F 21.2 °F 37% 30.46 in 10.0 mi ESE 8.1 mph - N/A   Clear
6:55 PM 44.6 °F 40.2 °F 21.2 °F 39% 30.45 in 10.0 mi ESE 8.1 mph - N/A   Clear
7:15 PM 44.6 °F 40.7 °F 21.2 °F 39% 30.45 in 10.0 mi ESE 6.9 mph - N/A   Clear
7:35 PM 42.8 °F 39.3 °F 19.4 °F 39% 30.45 in 10.0 mi ESE 5.8 mph - N/A   Clear
7:55 PM 42.8 °F 40.1 °F 21.2 °F 42% 30.46 in 10.0 mi ESE 4.6 mph - N/A   Clear
8:10 PM 42.8 °F 38.0 °F 21.2 °F 42% 30.46 in 10.0 mi ESE 8.1 mph - N/A   Clear
8:35 PM 41.0 °F 35.2 °F 21.2 °F 45% 30.46 in 10.0 mi ESE 9.2 mph - N/A   Clear
8:55 PM 39.2 °F 33.6 °F 21.2 °F 49% 30.46 in 10.0 mi ESE 8.1 mph - N/A   Clear
9:15 PM 39.2 °F 32.5 °F 21.2 °F 49% 30.48 in 10.0 mi SE 10.4 mph - N/A   Clear
9:35 PM 39.2 °F 33.0 °F 21.2 °F 49% 30.50 in 10.0 mi SSE 9.2 mph - N/A   Clear
9:55 PM 39.2 °F 35.9 °F 21.2 °F 49% 30.51 in 10.0 mi SSE 4.6 mph - N/A   Clear
10:15 PM 39.2 °F 33.6 °F 21.2 °F 49% 30.49 in 10.0 mi SE 8.1 mph - N/A   Clear
10:35 PM 37.4 °F 32.1 °F 21.2 °F 52% 30.47 in 10.0 mi ESE 6.9 mph - N/A   Clear
10:55 PM 39.2 °F 33.6 °F 21.2 °F 49% 30.47 in 10.0 mi ESE 8.1 mph - N/A   Clear
11:15 PM 39.2 °F 33.6 °F 21.2 °F 49% 30.48 in 10.0 mi SE 8.1 mph - N/A   Clear
11:35 PM 39.2 °F 33.0 °F 21.2 °F 49% 30.48 in 10.0 mi SE 9.2 mph - N/A   Clear
11:55 PM 37.4 °F 30.8 °F 21.2 °F 52% 30.47 in 10.0 mi SE 9.2 mph - N/A   Clear